Regional Weather Roundup
Issued by NWS Albany, NY

Home | Current Version | Previous Version | Text Only | Print | Product List | Glossary On
Versions: 1 2 3 4 5 6 7 8 9 10 11 12 13 14 15 16 17 18 19 20 21 22 23 24 25 26 27 28 29 30 31 32 33 34 35 36 37 38 39 40 41 42 43 44 45 46 47 48 49 50
000
ASUS41 KALY 102210
RWRALY

NEW YORK STATE HOURLY WEATHER ROUNDUP
NATIONAL WEATHER SERVICE ALBANY NY
500 PM EST SAT DEC 10 2016

NOTE: "FAIR" INDICATES FEW OR NO CLOUDS BELOW 12,000 FEET WITH NO
SIGNIFICANT WEATHER AND/OR NO OBSTRUCTIONS TO VISIBILITY.

NYZ032-033-038>043-046>054-057>066-NYZ062>081-082-084-102300-
EAST


CITY           SKY/WX    TMP DP  RH WIND       PRES   REMARKS
ALBANY         PTCLDY    25  12  58 NW6       30.36R WCI  18
GLENS FALLS    CLEAR     22   7  52 S3        30.34R
POUGHKEEPSIE   PTCLDY    28  13  53 CALM      30.35R
NEWBURGH       PTCLDY    27  18  69 W8        30.35R WCI  18
MONTGOMERY     CLEAR     29  17  61 W6        30.34R WCI  23
WHITE PLAINS   PTCLDY    30  16  56 W7        30.35R WCI  23
ISLIP          PTCLDY    31  17  56 W9        30.37R WCI  23
NEW YORK CITY  MOCLDY    36  19  50 NW13      30.38R WCI  27
CENTRAL PARK   PTCLDY    34  18  52 NW8       30.40R WCI  27
$$

NYZ005>009-017-018-044>046-055-056-102300-
CENTRAL


CITY           SKY/WX    TMP DP  RH WIND       PRES   REMARKS
FULTON         CLOUDY    25  20  81 SW3       30.35R
SYRACUSE       LGT SNOW  24  22  91 SW6       30.36R FOG     WCI  17
ROME           CLOUDY    23  17  78 CALM      30.36R
ELMIRA         MOCLDY    25  21  85 SW5       30.34R WCI  19
BINGHAMTON     LGT SNOW  21  20  96 NW3       30.27S VSB 1
MONTICELLO     PTCLDY    23  19  86 W5        30.30R WCI  17
$$

NYZ026>034-041>043-087-102300-
NORTH


CITY           SKY/WX    TMP DP  RH WIND       PRES   REMARKS
WATERTOWN      CLOUDY    24  17  74 CALM      30.35R
FORT DRUM      NOT AVBL
OGDENSBURG     FAIR      17  12  78 CALM      30.35R
MASSENA        PTCLDY    20   9  62 W5        30.36R WCI  13
SARANAC LAKE   CLOUDY    11   5  77 CALM      30.22R
PLATTSBURGH    CLOUDY    20  12  71 CALM      30.34R
$$

NYZ001>004-010>016-019>021-085-102300-
WEST


CITY           SKY/WX    TMP DP  RH WIND       PRES   REMARKS
NIAGARA FALLS  PTCLDY    27  10  49 W16       30.36R WCI  15
BUFFALO        FLURRIES  27  10  49 W14G24    30.36R WCI  16
DUNKIRK        CLOUDY    29  15  56 W10G21    30.38R WCI  20
JAMESTOWN      CLOUDY    21  18  86 SW15G21   30.31R WCI   8
WELLSVILLE     PTCLDY    21  13  71 W9        30.29R WCI  11
ROCHESTER      MOCLDY    28  18  66 W8        30.35R WCI  20
PENN YAN       FLURRIES  26  18  71 W7        30.33R WCI  18
$$

             KEY
       WCI = WIND CHILL INDEX
       VSB = VISIBILITY
       HX  = HEAT INDEX
$$



USA.gov is the U.S. government's official web portal to all federal, state and local government web resources and services.